• In Hungary
  • List of Countries
  • For 7 days
  • Water Temperature
  • Satellite Maps
  • Weather Map
  • News
  • Weather Widgets
  • user-avatar
    Login

    Hourly Weather Palotina

    Today, 15 November, Thursday

    Time Temperature Precipitation Wind Pressure Humidity
    00:00 +24°C° 0 mm 2 mps 728 mmHg 91%
    01:00 +23°C° 0 mm 2 mps 728 mmHg 91%
    02:00 +23°C° 0 mm 2 mps 728 mmHg 89%
    03:00 +21°C° 0 mm 2 mps 728 mmHg 90%
    04:00 +21°C° 0 mm 2 mps 729 mmHg 91%
    05:00 +21°C° 0 mm 2 mps 729 mmHg 91%
    06:00 +24°C° 0 mm 2 mps 729 mmHg 84%
    07:00 +26°C° 0 mm 2 mps 729 mmHg 76%
    08:00 +28°C° 0 mm 2 mps 730 mmHg 68%
    09:00 +29°C° 0 mm 2 mps 730 mmHg 62%
    10:00 +31°C° 0 mm 2 mps 730 mmHg 56%
    11:00 +32°C° 0 mm 2 mps 729 mmHg 50%
    12:00 +34°C° 0 mm 2 mps 729 mmHg 47%
    13:00 +35°C° 0 mm 3 mps 729 mmHg 44%
    14:00 +35°C° 0 mm 3 mps 728 mmHg 41%
    15:00 +34°C° 0 mm 2 mps 728 mmHg 43%
    16:00 +34°C° 0 mm 2 mps 728 mmHg 45%
    17:00 +32°C° 0 mm 2 mps 727 mmHg 47%
    18:00 +30°C° 0 mm 2 mps 728 mmHg 48%
    19:00 +28°C° 0 mm 2 mps 728 mmHg 49%
    20:00 +26°C° 0 mm 2 mps 728 mmHg 50%
    21:00 +25°C° 0 mm 2 mps 729 mmHg 52%
    22:00 +24°C° 0 mm 2 mps 729 mmHg 54%
    23:00 +24°C° 0 mm 2 mps 729 mmHg 56%

    Tomorrow, 16 November, Friday

    Time Temperature Precipitation Wind Pressure Humidity
    00:00 +23°C° 0 mm 2 mps 729 mmHg 58%
    01:00 +23°C° 0 mm 2 mps 729 mmHg 59%
    02:00 +21°C° 0 mm 2 mps 729 mmHg 60%
    03:00 +21°C° 0 mm 2 mps 729 mmHg 62%
    04:00 +21°C° 0 mm 2 mps 729 mmHg 64%
    05:00 +21°C° 0 mm 2 mps 730 mmHg 67%
    06:00 +24°C° 0 mm 2 mps 730 mmHg 67%
    07:00 +27°C° 0 mm 3 mps 731 mmHg 68%
    08:00 +29°C° 0 mm 4 mps 731 mmHg 68%
    09:00 +31°C° 0 mm 3 mps 731 mmHg 63%
    10:00 +33°C° 0 mm 3 mps 731 mmHg 58%
    11:00 +35°C° 0 mm 3 mps 731 mmHg 53%
    12:00 +35°C° 0 mm 3 mps 730 mmHg 52%
    13:00 +36°C° 0 mm 3 mps 730 mmHg 50%
    14:00 +36°C° 0 mm 3 mps 729 mmHg 49%
    15:00 +35°C° 0 mm 2 mps 729 mmHg 51%
    16:00 +35°C° 0 mm 2 mps 728 mmHg 53%
    17:00 +34°C° 0 mm 2 mps 728 mmHg 55%
    18:00 +32°C° 0 mm 2 mps 728 mmHg 59%
    19:00 +30°C° 0 mm 1 mps 729 mmHg 63%
    20:00 +29°C° 0 mm 1 mps 729 mmHg 66%
    21:00 +28°C° 0 mm 2 mps 729 mmHg 68%
    22:00 +28°C° 0 mm 2 mps 729 mmHg 71%
    23:00 +27°C° 0 mm 3 mps 730 mmHg 73%

    Day after tomorrow, 17 November, Saturday

    Time Temperature Precipitation Wind Pressure Humidity
    00:00 +27°C° 0 mm 4 mps 729 mmHg 70%
    01:00 +27°C° 0 mm 5 mps 729 mmHg 68%
    02:00 +26°C° 0 mm 6 mps 729 mmHg 66%
    03:00 +25°C° 0 mm 5 mps 729 mmHg 63%
    04:00 +23°C° 0 mm 5 mps 730 mmHg 59%
    05:00 +22°C° 0 mm 4 mps 730 mmHg 56%
    06:00 +25°C° 0 mm 5 mps 730 mmHg 55%
    07:00 +26°C° 0 mm 5 mps 731 mmHg 55%
    08:00 +27°C° 0 mm 6 mps 731 mmHg 54%
    09:00 +29°C° 0 mm 6 mps 731 mmHg 53%
    10:00 +30°C° 0 mm 6 mps 731 mmHg 52%
    11:00 +33°C° 0 mm 6 mps 731 mmHg 51%
    12:00 +34°C° 0 mm 6 mps 730 mmHg 51%
    13:00 +34°C° 0 mm 5 mps 729 mmHg 50%
    14:00 +35°C° 0 mm 5 mps 728 mmHg 50%
    15:00 +35°C° 0 mm 5 mps 728 mmHg 53%
    16:00 +34°C° 0 mm 4 mps 728 mmHg 57%
    17:00 +33°C° 0 mm 3 mps 727 mmHg 60%
    18:00 +31°C° 0 mm 3 mps 727 mmHg 64%
    19:00 +30°C° 0 mm 3 mps 728 mmHg 68%
    20:00 +29°C° 0 mm 3 mps 728 mmHg 71%
    21:00 +29°C° 0 mm 3 mps 728 mmHg 71%
    22:00 +29°C° 0 mm 4 mps 728 mmHg 71%
    23:00 +28°C° 0 mm 4 mps 728 mmHg 70%

    18 November, Sunday

    Time Temperature Precipitation Wind Pressure Humidity
    00:00 +28°C° 0 mm 4 mps 727 mmHg 71%
    01:00 +28°C° 0 mm 4 mps 727 mmHg 73%
    02:00 +27°C° 0 mm 4 mps 726 mmHg 74%
    03:00 +27°C° 0.9 mm 4 mps 727 mmHg 78%
    04:00 +26°C° 0.9 mm 3 mps 727 mmHg 83%
    05:00 +25°C° 0.9 mm 3 mps 727 mmHg 87%
    06:00 +26°C° 3.1 mm 3 mps 728 mmHg 88%
    07:00 +26°C° 3.1 mm 3 mps 729 mmHg 88%
    08:00 +26°C° 3.1 mm 3 mps 729 mmHg 88%
    09:00 +26°C° 3.5 mm 3 mps 729 mmHg 88%
    10:00 +26°C° 3.5 mm 2 mps 729 mmHg 87%
    11:00 +27°C° 3.5 mm 2 mps 729 mmHg 86%
    12:00 +26°C° 2.2 mm 2 mps 729 mmHg 87%
    13:00 +26°C° 2.2 mm 2 mps 729 mmHg 88%
    14:00 +25°C° 2.2 mm 2 mps 728 mmHg 89%
    15:00 +25°C° 0 mm 2 mps 728 mmHg 87%
    16:00 +25°C° 0 mm 3 mps 728 mmHg 85%
    17:00 +25°C° 0 mm 3 mps 728 mmHg 83%
    18:00 +25°C° 0 mm 3 mps 728 mmHg 86%
    19:00 +24°C° 0 mm 3 mps 729 mmHg 89%
    20:00 +24°C° 0 mm 2 mps 730 mmHg 91%
    21:00 +23°C° 0 mm 2 mps 730 mmHg 91%
    22:00 +23°C° 0 mm 2 mps 730 mmHg 92%
    23:00 +23°C° 0 mm 2 mps 731 mmHg 92%

    19 November, Monday

    Time Temperature Precipitation Wind Pressure Humidity
    00:00 +21°C° 0 mm 2 mps 730 mmHg 92%
    01:00 +21°C° 0 mm 3 mps 730 mmHg 92%
    02:00 +20°C° 0 mm 3 mps 729 mmHg 92%
    03:00 +20°C° 0 mm 3 mps 729 mmHg 91%
    04:00 +19°C° 0 mm 3 mps 730 mmHg 91%
    05:00 +19°C° 0 mm 3 mps 730 mmHg 90%
    06:00 +21°C° 0 mm 3 mps 730 mmHg 84%
    07:00 +22°C° 0 mm 3 mps 731 mmHg 78%
    08:00 +25°C° 0 mm 3 mps 731 mmHg 72%
    09:00 +27°C° 0 mm 2 mps 731 mmHg 66%
    10:00 +29°C° 0 mm 2 mps 730 mmHg 60%
    11:00 +31°C° 0 mm 2 mps 730 mmHg 54%
    12:00 +32°C° 0 mm 2 mps 730 mmHg 50%
    13:00 +32°C° 0 mm 2 mps 729 mmHg 46%
    14:00 +34°C° 0 mm 3 mps 728 mmHg 42%
    15:00 +33°C° 0 mm 3 mps 728 mmHg 47%
    16:00 +30°C° 0 mm 2 mps 728 mmHg 51%
    17:00 +29°C° 0 mm 2 mps 728 mmHg 55%
    18:00 +28°C° 0 mm 2 mps 728 mmHg 57%
    19:00 +26°C° 0 mm 2 mps 729 mmHg 59%
    20:00 +24°C° 0 mm 2 mps 730 mmHg 61%
    21:00 +24°C° 0 mm 3 mps 730 mmHg 66%
    22:00 +24°C° 0 mm 3 mps 730 mmHg 71%
    23:00 +22°C° 0 mm 3 mps 731 mmHg 75%

    20 November, Tuesday

    Time Temperature Precipitation Wind Pressure Humidity
    00:00 +22°C° 0 mm 3 mps 731 mmHg 75%
    01:00 +22°C° 0 mm 3 mps 730 mmHg 75%
    02:00 +21°C° 0 mm 3 mps 730 mmHg 75%
    03:00 +21°C° 0 mm 3 mps 731 mmHg 76%
    04:00 +20°C° 0 mm 3 mps 731 mmHg 78%
    05:00 +19°C° 0 mm 3 mps 731 mmHg 79%
    06:00 +21°C° 0 mm 3 mps 732 mmHg 74%
    07:00 +22°C° 0 mm 3 mps 732 mmHg 68%
    08:00 +25°C° 0 mm 4 mps 733 mmHg 63%
    09:00 +26°C° 0 mm 3 mps 733 mmHg 58%
    10:00 +28°C° 0 mm 3 mps 732 mmHg 53%
    11:00 +30°C° 0 mm 3 mps 732 mmHg 49%
    12:00 +31°C° 0 mm 2 mps 732 mmHg 47%
    13:00 +32°C° 0 mm 2 mps 731 mmHg 44%
    14:00 +33°C° 0 mm 1 mps 730 mmHg 42%
    15:00 +32°C° 0 mm 1 mps 730 mmHg 45%
    16:00 +32°C° 0 mm 1 mps 730 mmHg 48%
    17:00 +31°C° 0 mm 1 mps 729 mmHg 51%
    18:00 +30°C° 0 mm 1 mps 730 mmHg 54%
    19:00 +28°C° 0 mm 1 mps 730 mmHg 57%
    20:00 +26°C° 0 mm 1 mps 731 mmHg 60%
    21:00 +25°C° 0 mm 1 mps 731 mmHg 61%
    22:00 +25°C° 0 mm 2 mps 731 mmHg 62%
    23:00 +25°C° 0 mm 3 mps 731 mmHg 63%
    Show more